Theta_e
283 283 284 286 286 286 284 284 281 283 285 285 288 287 287 289 289 288 288 289 289 289 289 288 288 288 289 289 288 288 287 287 287 288 288 288 288 288 289 288 289 289 289 290
279 282 284 282 285 285 285 286 286 287 286 287 286 285 287 288 288 287 287 288 288 288 287 287 286 286 287 286 286 286 285 285 286 285 284 284 284 285 286 286 287 287 287 287
277 280 281 279 283 285 286 288 288 284 286 285 284 285 286 285 286 286 287 287 287 286 286 286 284 285 283 284 284 283 282 283 282 282 281 281 282 282 283 284 285 285 285 286
276 277 271 280 283 287 286 284 284 283 284 284 285 286 286 287 286 287 288 287 286 286 285 284 283 282 282 282 282 281 280 280 281 280 280 280 280 281 281 282 282 283 284 285
275 266 274 278 280 283 284 281 283 283 283 284 287 285 284 287 287 287 286 286 285 284 284 282 281 281 280 279 279 279 279 279 280 280 279 279 279 279 280 280 281 282 283 284
267 267 267 276 281 284 284 277 283 284 283 283 284 279 281 285 285 284 284 284 282 281 281 280 279 279 278 278 278 277 277 278 278 278 278 277 277 278 279 280 280 281 282 283
260 260 267 277 281 284 274 278 282 283 284 283 280 280 283 284 282 282 282 281 280 279 278 278 278 278 277 277 276 276 276 276 276 276 276 277 277 278 278 278 279 279 280 281
260 261 266 278 281 278 281 282 283 282 283 282 283 283 282 281 281 280 278 278 279 277 276 277 277 276 275 274 275 274 274 273 273 273 274 275 275 276 277 277 277 277 278 279
272 272 280 281 282 283 283 282 282 282 283 283 282 280 280 279 278 278 277 278 277 275 274 275 274 274 272 272 273 272 270 269 270 272 273 274 273 273 273 275 276 276 277 277
277 278 279 282 284 283 283 283 283 283 282 281 280 280 279 278 277 276 276 274 273 272 271 271 272 272 271 271 270 268 267 268 270 270 270 270 272 272 272 273 274 275 276 276
274 279 279 280 282 282 282 281 281 280 280 279 279 278 277 276 274 274 273 271 270 270 270 269 270 269 268 269 268 266 267 267 268 268 267 268 269 270 272 274 275 275 276 276
273 280 280 280 280 281 280 279 279 278 276 276 277 276 274 272 272 271 269 269 268 267 267 266 266 266 266 265 265 264 264 265 265 265 265 267 267 268 273 275 276 278 278 277
278 279 280 280 277 276 276 274 274 275 274 273 273 272 270 269 269 268 266 266 265 264 264 263 262 261 262 262 262 262 262 263 263 264 265 265 266 267 266 270 274 275 276 277
277 280 278 277 278 278 276 274 271 269 268 269 268 265 265 264 264 262 262 261 260 260 259 258 258 259 261 260 259 260 260 262 262 263 264 265 266 266 267 266 266 267 272 274
273 271 277 275 272 269 268 267 266 266 265 264 262 262 262 261 259 259 258 257 257 256 256 255 256 258 259 258 259 259 261 262 263 263 263 264 265 265 266 266 265 265 267 269
261 263 265 271 269 265 263 262 264 263 260 259 259 258 258 257 255 255 254 253 254 257 256 253 255 258 258 257 257 258 259 262 263 262 263 263 264 264 264 264 264 264 264 265
267 266 262 263 262 261 264 261 263 262 260 259 259 256 254 252 252 252 254 252 251 254 254 252 256 257 255 254 254 258 261 261 261 260 262 262 263 263 262 262 262 262 262 264
265 267 269 269 268 265 260 258 258 258 258 258 255 253 252 252 253 253 253 250 250 251 252 254 254 255 253 253 254 259 259 259 259 259 261 261 261 261 261 261 261 261 261 262
260 266 262 267 268 266 263 261 259 258 255 255 253 254 252 250 250 250 248 248 249 250 254 252 261 256 253 254 261 258 257 257 258 258 259 259 260 259 259 259 259 259 259 259
258 258 260 259 256 259 258 254 256 255 253 252 250 250 250 251 249 247 246 249 251 254 251 254 253 253 253 253 257 256 255 255 256 257 257 257 258 258 258 258 258 258 258 258
265 262 262 262 261 255 256 258 257 256 255 253 255 254 253 249 247 246 249 251 256 250 252 254 251 253 253 254 258 250 252 253 255 255 256 256 256 257 257 257 257 257 258 258
261 262 261 260 259 259 256 256 256 255 255 252 249 248 248 253 250 251 253 254 253 253 251 250 251 253 256 259 252 252 252 251 253 254 255 255 256 256 257 257 257 257 258 258
261 260 261 260 260 260 254 255 256 255 256 255 256 255 255 256 254 252 254 253 250 253 252 253 254 259 261 253 253 252 253 253 253 254 254 255 256 256 257 257 258 258 258 259
261 260 261 258 255 254 259 258 256 256 256 254 255 254 254 253 253 252 252 252 254 253 251 252 256 263 259 253 252 252 253 252 253 253 255 255 256 256 257 257 257 258 259 259
264 263 260 259 259 261 257 257 256 257 254 254 255 254 253 254 255 253 252 253 254 252 252 254 260 259 252 251 252 253 253 254 254 254 254 254 255 255 256 256 257 257 258 258
263 265 265 263 263 262 261 260 261 260 259 258 257 255 252 252 252 252 250 251 250 251 250 252 251 251 251 252 252 252 253 253 253 253 253 253 253 254 254 255 255 256 256 257
260 260 261 260 259 262 263 262 262 261 260 259 258 255 253 250 249 250 250 250 250 250 250 250 250 251 251 250 251 252 252 252 253 252 252 252 252 252 252 252 253 254 254 255
Wind_Speed
4 3 2 11 13 8 3 5 6 5 13 7 5 8 7 7 6 7 6 5 3 4 7 9 12 12 12 13 13 13 12 12 12 12 12 12 13 13 13 11 11 11 12 12
6 8 3 3 6 8 3 4 5 8 5 3 6 6 7 6 6 5 5 7 9 10 11 13 14 13 12 12 11 10 10 10 10 11 11 11 12 13 12 12 12 11 11 12
0 4 3 2 6 6 5 3 6 4 5 6 6 7 7 6 7 7 6 7 8 8 8 9 10 9 10 10 9 9 8 8 8 8 10 11 12 12 14 15 14 13 13 12
2 3 1 3 4 3 8 5 7 10 7 6 7 7 8 6 6 6 6 7 7 6 7 7 6 8 9 9 8 9 8 10 11 12 14 14 14 14 14 14 14 14 15 15
3 3 5 1 3 5 7 2 3 10 6 7 11 5 4 4 5 6 6 5 5 5 5 6 7 8 7 7 6 6 10 12 14 14 14 15 15 15 14 15 15 15 15 16
3 5 6 2 1 2 2 1 5 9 7 9 7 3 3 3 4 6 6 4 5 6 4 6 6 6 6 7 8 10 12 13 13 13 14 15 14 15 14 14 16 14 18 15
2 1 9 8 5 2 7 4 6 6 7 6 4 4 5 4 6 5 5 6 6 6 4 5 6 5 7 7 9 11 11 12 12 13 14 14 15 14 15 15 15 15 17 17
3 4 6 5 1 5 2 4 6 5 4 5 6 5 4 6 6 6 5 3 4 4 4 4 4 6 8 9 11 11 12 13 13 13 12 12 15 14 15 15 16 16 16 16
7 6 3 2 2 2 4 6 4 7 5 6 5 3 4 3 4 2 1 2 3 5 6 3 6 8 9 11 12 13 13 12 12 13 12 12 14 15 13 13 13 15 14 15
2 2 6 4 3 4 3 5 6 5 5 5 7 6 5 5 3 1 1 3 3 5 7 11 11 11 9 10 10 10 11 12 11 12 12 12 10 10 10 11 12 12 13 14
4 6 3 6 6 7 7 7 7 5 5 6 7 5 4 3 2 2 4 5 3 9 8 9 10 10 10 10 9 11 11 11 11 10 11 12 10 10 10 11 13 14 13 14
7 7 5 3 6 7 8 7 8 8 5 3 4 5 3 3 3 3 5 8 8 8 7 8 8 8 9 8 9 9 11 9 9 9 10 10 11 12 15 21 25 25 26 21
5 5 3 7 4 3 8 6 3 6 4 6 3 3 3 2 2 6 6 7 5 6 7 7 7 7 7 7 8 9 9 10 8 9 9 10 10 11 16 18 23 22 25 29
4 9 4 4 6 7 7 6 6 5 4 3 3 2 3 4 5 6 5 4 5 5 6 6 6 7 8 7 7 8 8 11 7 8 8 9 10 11 10 12 15 17 19 25
2 2 5 7 7 5 4 5 5 5 3 2 2 2 4 4 3 3 4 5 5 5 5 4 6 8 7 7 7 8 8 7 7 8 8 10 10 10 10 11 12 12 14 18
2 5 5 6 7 5 5 3 5 3 2 1 1 1 3 2 3 5 4 3 2 5 6 4 6 7 7 7 7 6 6 10 9 8 9 9 9 10 10 11 11 11 11 12
6 1 2 1 6 6 7 4 5 6 5 5 5 4 3 4 2 3 5 4 4 7 6 3 7 8 6 5 5 5 6 8 11 8 8 8 9 9 9 10 10 11 11 11
3 5 7 6 10 9 5 5 6 6 5 6 6 5 3 2 3 5 6 4 4 5 5 6 7 5 5 5 5 5 6 7 7 8 8 9 9 9 9 10 10 11 11 11
3 6 5 7 9 7 6 6 5 4 4 5 5 4 3 4 4 5 4 4 4 3 4 4 9 6 6 8 8 4 5 7 8 8 8 10 9 9 9 9 10 10 10 10
4 3 4 7 5 5 6 4 5 5 4 5 4 2 3 5 4 3 1 4 5 5 4 7 6 6 6 7 8 3 6 7 8 8 8 9 9 10 10 11 11 10 9 8
8 7 8 9 8 5 4 7 7 6 5 5 6 5 5 4 3 2 1 0 5 4 6 7 4 5 4 5 5 3 5 6 7 8 8 9 10 9 9 9 10 9 10 9
6 7 7 7 6 6 6 6 6 5 5 5 4 3 2 5 4 4 6 5 4 5 4 4 3 5 5 8 3 4 5 5 6 7 8 8 8 9 10 9 10 9 9 9
6 5 6 8 9 6 4 6 6 5 6 6 6 6 6 3 3 2 1 5 4 6 3 4 7 9 9 4 5 5 7 7 8 8 8 8 8 9 9 10 10 10 10 9
6 7 6 5 6 4 6 5 5 6 5 4 5 4 4 1 3 4 4 5 5 5 3 4 6 11 9 4 5 6 7 7 7 7 9 10 8 8 9 9 10 10 10 10
9 6 5 7 8 6 4 4 5 4 4 4 4 4 5 3 3 2 2 3 5 4 4 7 10 10 4 5 6 7 7 7 7 8 8 8 9 9 10 9 9 10 10 9
10 10 9 9 5 5 5 6 5 4 4 3 3 3 2 2 2 2 2 3 2 4 3 4 3 4 4 6 7 7 7 8 8 8 9 8 9 9 9 10 10 10 10 10
3 4 4 3 2 4 5 6 5 6 5 4 3 3 2 2 1 2 3 3 3 3 4 4 4 5 5 5 6 7 7 7 9 9 8 8 8 8 9 9 9 10 10 10
Wind_Direction
43 353 168 175 185 187 160 159 150 169 165 165 167 129 121 124 111 89 78 87 89 50 29 23 17 9 9 9 4 358 354 353 350 344 342 339 338 333 326 319 311 300 296 286
32 356 75 102 139 144 138 121 82 115 108 127 104 104 113 112 112 91 66 45 33 27 22 17 11 4 2 357 352 348 347 342 339 339 335 332 329 327 320 313 308 301 297 286
224 331 16 359 208 161 151 144 144 172 160 159 125 126 116 97 72 59 50 43 28 18 22 17 6 356 351 342 337 342 332 329 327 325 325 326 322 321 321 320 313 305 299 289
116 11 122 248 333 160 111 69 89 89 101 108 119 107 102 77 84 66 56 43 23 16 6 12 360 352 338 340 336 330 328 331 333 337 331 328 327 324 319 310 310 305 301 295
147 175 283 348 157 148 164 151 183 132 134 119 135 103 77 87 66 78 71 52 36 18 5 357 351 334 325 320 319 319 338 337 336 332 323 320 321 318 314 312 311 305 298 295
110 141 186 262 233 254 174 181 160 133 139 130 148 139 175 105 114 87 77 52 16 8 2 349 321 304 316 330 339 346 337 326 325 321 320 316 312 312 313 307 302 302 299 293
131 154 287 244 268 299 98 204 153 141 142 131 129 149 139 87 71 57 55 32 15 351 309 280 289 324 344 339 351 331 327 323 323 322 319 312 315 315 313 307 303 304 300 300
80 73 280 188 118 164 185 67 121 117 120 119 118 106 73 83 61 51 42 357 322 310 283 294 333 353 351 352 337 328 326 328 326 318 315 318 315 314 314 311 310 311 308 306
181 217 268 262 9 102 117 117 137 127 130 133 139 135 123 122 117 139 43 294 317 298 297 278 27 20 347 343 336 333 326 322 319 318 318 317 313 312 313 314 313 313 315 312
70 251 231 220 91 114 107 124 125 117 142 152 154 160 152 148 129 112 290 294 263 255 355 358 0 0 347 332 332 324 318 319 316 318 317 312 309 307 311 312 312 311 309 307
269 268 302 262 203 153 115 111 115 116 145 157 145 141 132 119 92 237 242 237 5 20 359 343 341 333 328 327 326 324 321 319 316 316 316 314 307 308 308 305 305 310 310 308
214 210 160 170 155 138 136 157 162 151 142 114 107 128 118 168 194 226 4 11 11 5 342 322 321 311 310 316 323 320 319 319 316 315 316 313 314 311 309 312 316 313 315 314
191 151 132 126 127 151 139 149 139 126 119 135 81 120 194 193 44 17 16 13 349 316 311 304 305 300 298 301 314 313 302 304 309 309 310 316 319 321 321 323 320 323 324 324
172 118 73 203 179 161 134 120 95 87 81 109 130 48 51 42 20 7 339 306 306 290 285 290 300 296 296 302 301 290 287 289 290 303 308 311 315 314 312 316 321 323 329 325
155 3 162 122 105 102 86 111 98 128 138 94 42 84 50 9 338 287 287 289 300 295 290 298 314 302 295 296 299 298 303 307 310 307 306 303 307 310 313 315 312 309 318 325
52 50 58 129 146 120 101 84 140 186 140 190 96 1 247 254 270 271 283 305 348 308 297 283 276 293 310 314 310 308 306 302 317 315 312 313 315 314 312 309 309 313 318 318
93 53 53 109 171 175 190 174 156 167 163 165 206 204 220 235 276 332 295 290 263 267 264 272 293 304 297 289 298 305 321 320 316 310 307 306 304 304 305 308 311 314 310 313
181 174 178 167 172 170 179 191 171 162 186 186 163 180 184 69 244 273 279 278 283 306 257 240 272 275 288 300 303 309 321 315 311 302 305 308 309 308 311 311 311 308 310 313
195 172 179 163 153 161 156 166 182 187 167 168 157 198 197 226 238 253 293 326 331 342 268 273 316 335 320 323 335 319 298 313 315 312 308 307 307 308 308 307 306 305 308 313
151 117 108 120 97 127 163 212 169 185 193 150 136 145 242 249 238 269 310 274 237 227 282 303 321 318 304 302 315 297 315 310 309 307 306 306 305 307 304 303 303 304 308 310
176 165 163 164 175 179 175 162 165 193 196 180 182 210 220 256 273 247 5 350 268 259 289 295 284 285 292 290 289 298 302 300 299 298 302 303 304 301 298 300 302 305 308 309
175 179 181 171 174 189 196 180 182 153 171 178 200 210 227 260 241 258 231 209 266 279 264 260 262 277 290 295 294 296 291 287 291 294 292 293 293 297 300 303 303 305 306 307
172 179 171 176 189 199 151 188 183 174 186 194 197 197 209 217 189 150 321 250 259 295 311 304 303 313 324 335 314 305 300 295 293 291 288 289 290 295 299 303 304 305 307 309
174 188 191 162 141 134 192 204 191 191 188 192 204 199 177 236 303 223 264 281 273 279 276 291 318 324 340 316 310 298 291 282 285 286 291 296 299 302 299 302 305 308 307 308
197 181 161 171 189 207 164 158 158 188 187 207 214 214 203 209 190 240 258 290 308 334 320 315 318 324 308 292 296 299 297 296 295 298 300 301 304 305 303 304 305 307 308 307
185 201 201 190 189 159 163 157 193 175 166 181 205 196 208 205 213 232 269 295 312 309 289 288 287 296 292 299 296 295 297 300 301 298 300 302 304 304 305 307 307 307 306 305
162 145 137 132 157 158 163 176 177 185 183 175 160 172 181 225 274 333 325 323 312 295 283 287 289 291 290 289 290 291 293 294 291 295 297 296 299 299 302 304 304 305 304 301